Data supplied by UK-AIR on 14/3/2024
All Data GMT hour ending 
Status: R =Ratified P=Provisional,P*=As supplied
,,Coventry Binley Road,,,,,,,,,,,,,,,,,,,,,,,
Date,time,"PM<sub>10</sub> particulate matter (Hourly measured)",status,unit,"Nitric oxide",status,unit,"Nitrogen dioxide",status,unit,"Nitrogen oxides as nitrogen dioxide",status,unit
 
01-01-2023,01:00,13.527,R,ugm-3 (Ref.eq),5.29136,R,ugm-3,8.25829,R,ugm-3,16.37159,R,ugm-3
01-01-2023,02:00,9.662,R,ugm-3 (Ref.eq),4.09080,R,ugm-3,4.14582,R,ugm-3,10.41829,R,ugm-3
01-01-2023,03:00,9.662,R,ugm-3 (Ref.eq),3.13480,R,ugm-3,4.73220,R,ugm-3,9.53882,R,ugm-3
01-01-2023,04:00,15.459,R,ugm-3 (Ref.eq),4.43541,R,ugm-3,4.26012,R,ugm-3,11.06097,R,ugm-3
01-01-2023,05:00,15.459,R,ugm-3 (Ref.eq),2.33442,R,ugm-3,3.11807,R,ugm-3,6.69747,R,ugm-3
01-01-2023,06:00,15.459,R,ugm-3 (Ref.eq),2.46782,R,ugm-3,1.39138,R,ugm-3,5.17532,R,ugm-3
01-01-2023,07:00,9.662,R,ugm-3 (Ref.eq),1.46735,R,ugm-3,4.80273,R,ugm-3,7.05264,R,ugm-3
01-01-2023,08:00,8.696,R,ugm-3 (Ref.eq),1.26726,R,ugm-3,2.06523,R,ugm-3,4.00833,R,ugm-3
01-01-2023,09:00,11.594,R,ugm-3 (Ref.eq),1.23391,R,ugm-3,2.57301,R,ugm-3,4.46498,R,ugm-3
01-01-2023,10:00,16.425,R,ugm-3 (Ref.eq),2.50117,R,ugm-3,3.62348,R,ugm-3,7.45855,R,ugm-3
01-01-2023,11:00,13.527,R,ugm-3 (Ref.eq),1.70080,R,ugm-3,3.48076,R,ugm-3,6.08861,R,ugm-3
01-01-2023,12:00,17.392,R,ugm-3 (Ref.eq),3.80178,R,ugm-3,5.43462,R,ugm-3,11.26393,R,ugm-3
01-01-2023,13:00,17.392,R,ugm-3 (Ref.eq),5.90276,R,ugm-3,7.99734,R,ugm-3,17.04811,R,ugm-3
01-01-2023,14:00,24.155,R,ugm-3 (Ref.eq),7.33676,R,ugm-3,10.92314,R,ugm-3,22.17269,R,ugm-3
01-01-2023,15:00,27.054,R,ugm-3 (Ref.eq),13.53966,R,ugm-3,15.97409,R,ugm-3,36.73461,R,ugm-3
01-01-2023,16:00,26.087,R,ugm-3 (Ref.eq),12.60589,R,ugm-3,18.67431,R,ugm-3,38.00307,R,ugm-3
01-01-2023,17:00,23.189,R,ugm-3 (Ref.eq),14.03989,R,ugm-3,25.25328,R,ugm-3,46.78081,R,ugm-3
01-01-2023,18:00,17.392,R,ugm-3 (Ref.eq),11.47202,R,ugm-3,14.42575,R,ugm-3,32.01594,R,ugm-3
01-01-2023,19:00,11.594,R,ugm-3 (Ref.eq),8.10378,R,ugm-3,15.58197,R,ugm-3,28.00760,R,ugm-3
01-01-2023,20:00,13.527,R,ugm-3 (Ref.eq),7.37011,R,ugm-3,15.99659,R,ugm-3,27.29726,R,ugm-3
01-01-2023,21:00,9.662,R,ugm-3 (Ref.eq),8.57067,R,ugm-3,16.03308,R,ugm-3,29.17459,R,ugm-3
01-01-2023,22:00,7.730,R,ugm-3 (Ref.eq),7.40346,R,ugm-3,13.45927,R,ugm-3,24.81108,R,ugm-3
01-01-2023,23:00,9.662,R,ugm-3 (Ref.eq),9.17095,R,ugm-3,13.23534,R,ugm-3,27.29726,R,ugm-3
01-01-2023,24:00,10.628,R,ugm-3 (Ref.eq),9.63783,R,ugm-3,12.92537,R,ugm-3,27.70317,R,ugm-3
02-01-2023,01:00,8.696,R,ugm-3 (Ref.eq),9.57081,R,ugm-3,18.77418,R,ugm-3,33.44921,R,ugm-3
02-01-2023,02:00,4.831,R,ugm-3 (Ref.eq),5.29733,R,ugm-3,9.41468,R,ugm-3,17.53714,R,ugm-3
02-01-2023,03:00,5.797,R,ugm-3 (Ref.eq),5.34185,R,ugm-3,6.84111,R,ugm-3,15.03183,R,ugm-3
02-01-2023,04:00,8.696,R,ugm-3 (Ref.eq),3.57236,R,ugm-3,5.28850,R,ugm-3,10.76604,R,ugm-3
02-01-2023,05:00,10.628,R,ugm-3 (Ref.eq),3.47220,R,ugm-3,10.11413,R,ugm-3,15.43810,R,ugm-3
02-01-2023,06:00,9.662,R,ugm-3 (Ref.eq),6.54376,R,ugm-3,19.97925,R,ugm-3,30.01288,R,ugm-3
02-01-2023,07:00,12.561,R,ugm-3 (Ref.eq),15.19087,R,ugm-3,34.70208,R,ugm-3,57.99443,R,ugm-3
02-01-2023,08:00,7.730,R,ugm-3 (Ref.eq),13.15430,R,ugm-3,35.84424,R,ugm-3,56.01388,R,ugm-3
02-01-2023,09:00,6.763,R,ugm-3 (Ref.eq),16.86020,R,ugm-3,34.32616,R,ugm-3,60.17810,R,ugm-3
02-01-2023,10:00,5.797,R,ugm-3 (Ref.eq),24.33879,R,ugm-3,35.04712,R,ugm-3,72.36607,R,ugm-3
02-01-2023,11:00,5.797,R,ugm-3 (Ref.eq),27.24341,R,ugm-3,37.65229,R,ugm-3,79.42494,R,ugm-3
02-01-2023,12:00,6.763,R,ugm-3 (Ref.eq),25.87457,R,ugm-3,34.06344,R,ugm-3,73.73722,R,ugm-3
02-01-2023,13:00,9.662,R,ugm-3 (Ref.eq),30.71561,R,ugm-3,37.66056,R,ugm-3,84.75718,R,ugm-3
02-01-2023,14:00,9.662,R,ugm-3 (Ref.eq),26.50891,R,ugm-3,28.01247,R,ugm-3,68.65890,R,ugm-3
02-01-2023,15:00,7.730,R,ugm-3 (Ref.eq),31.24980,R,ugm-3,33.48980,R,ugm-3,81.40549,R,ugm-3
02-01-2023,16:00,20.290,R,ugm-3 (Ref.eq),42.10042,R,ugm-3,46.66215,R,ugm-3,111.21523,R,ugm-3
02-01-2023,17:00,22.223,R,ugm-3 (Ref.eq),64.66972,R,ugm-3,59.94494,R,ugm-3,159.10380,R,ugm-3
02-01-2023,18:00,28.986,R,ugm-3 (Ref.eq),70.94639,R,ugm-3,64.59093,R,ugm-3,173.37388,R,ugm-3
02-01-2023,19:00,23.189,R,ugm-3 (Ref.eq),60.22931,R,ugm-3,64.82371,R,ugm-3,157.17404,R,ugm-3
02-01-2023,20:00,25.121,R,ugm-3 (Ref.eq),39.89691,R,ugm-3,62.63505,R,ugm-3,123.80947,R,ugm-3
02-01-2023,21:00,26.087,R,ugm-3 (Ref.eq),68.87643,R,ugm-3,62.68651,R,ugm-3,168.29556,R,ugm-3
02-01-2023,22:00,26.087,R,ugm-3 (Ref.eq),48.07661,R,ugm-3,52.22591,R,ugm-3,125.94236,R,ugm-3
02-01-2023,23:00,23.189,R,ugm-3 (Ref.eq),59.49481,R,ugm-3,56.30112,R,ugm-3,147.52522,R,ugm-3
02-01-2023,24:00,11.594,R,ugm-3 (Ref.eq),70.04496,R,ugm-3,53.48044,R,ugm-3,160.88121,R,ugm-3
03-01-2023,01:00,17.392,R,ugm-3 (Ref.eq),36.45463,R,ugm-3,42.03232,R,ugm-3,97.92863,R,ugm-3
03-01-2023,02:00,15.459,R,ugm-3 (Ref.eq),4.23373,R,ugm-3,21.02327,R,ugm-3,27.51490,R,ugm-3
03-01-2023,03:00,16.425,R,ugm-3 (Ref.eq),4.04432,R,ugm-3,22.97407,R,ugm-3,29.17528,R,ugm-3
03-01-2023,04:00,14.493,R,ugm-3 (Ref.eq),1.16985,R,ugm-3,11.77734,R,ugm-3,13.57108,R,ugm-3
03-01-2023,05:00,10.628,R,ugm-3 (Ref.eq),2.13915,R,ugm-3,11.56180,R,ugm-3,14.84178,R,ugm-3
03-01-2023,06:00,16.425,R,ugm-3 (Ref.eq),8.48974,R,ugm-3,19.36003,R,ugm-3,32.37744,R,ugm-3
03-01-2023,07:00,10.628,R,ugm-3 (Ref.eq),17.91535,R,ugm-3,28.74595,R,ugm-3,56.21578,R,ugm-3
03-01-2023,08:00,7.730,R,ugm-3 (Ref.eq),12.16640,R,ugm-3,20.07606,R,ugm-3,38.73094,R,ugm-3
03-01-2023,09:00,11.594,R,ugm-3 (Ref.eq),13.20255,R,ugm-3,22.75687,R,ugm-3,43.00050,R,ugm-3
03-01-2023,10:00,9.662,R,ugm-3 (Ref.eq),15.67594,R,ugm-3,23.99637,R,ugm-3,48.03247,R,ugm-3
03-01-2023,11:00,5.797,R,ugm-3 (Ref.eq),12.60091,R,ugm-3,20.83300,R,ugm-3,40.15413,R,ugm-3
03-01-2023,12:00,3.865,R,ugm-3 (Ref.eq),10.72916,R,ugm-3,18.46770,R,ugm-3,34.91884,R,ugm-3
03-01-2023,13:00,3.865,R,ugm-3 (Ref.eq),13.50336,R,ugm-3,23.56633,R,ugm-3,44.27120,R,ugm-3
03-01-2023,14:00,5.797,R,ugm-3 (Ref.eq),11.46449,R,ugm-3,18.71256,R,ugm-3,36.29120,R,ugm-3
03-01-2023,15:00,10.628,R,ugm-3 (Ref.eq),14.90718,R,ugm-3,19.73652,R,ugm-3,42.59387,R,ugm-3
03-01-2023,16:00,12.561,R,ugm-3 (Ref.eq),9.15822,R,ugm-3,14.42128,R,ugm-3,28.46369,R,ugm-3
03-01-2023,17:00,8.696,R,ugm-3 (Ref.eq),9.65959,R,ugm-3,13.24591,R,ugm-3,28.05706,R,ugm-3
03-01-2023,18:00,5.797,R,ugm-3 (Ref.eq),9.89355,R,ugm-3,15.73353,R,ugm-3,30.90343,R,ugm-3
03-01-2023,19:00,2.899,R,ugm-3 (Ref.eq),7.72098,R,ugm-3,13.57533,R,ugm-3,25.41401,R,ugm-3
03-01-2023,20:00,0.966,R,ugm-3 (Ref.eq),7.05250,R,ugm-3,10.48325,R,ugm-3,21.29694,R,ugm-3
03-01-2023,21:00,3.865,R,ugm-3 (Ref.eq),4.24487,R,ugm-3,7.57065,R,ugm-3,14.07936,R,ugm-3
03-01-2023,22:00,2.899,R,ugm-3 (Ref.eq),5.88265,R,ugm-3,5.05942,R,ugm-3,14.07936,R,ugm-3
03-01-2023,23:00,-0.966,R,ugm-3 (Ref.eq),4.51226,R,ugm-3,2.99276,R,ugm-3,9.91146,R,ugm-3
03-01-2023,24:00,0.966,R,ugm-3 (Ref.eq),2.64051,R,ugm-3,1.49153,R,ugm-3,5.54025,R,ugm-3
04-01-2023,01:00,4.831,R,ugm-3 (Ref.eq),1.51694,R,ugm-3,1.74389,R,ugm-3,4.06983,R,ugm-3
04-01-2023,02:00,2.899,R,ugm-3 (Ref.eq),1.16001,R,ugm-3,1.07022,R,ugm-3,2.84888,R,ugm-3
04-01-2023,03:00,-1.932,R,ugm-3 (Ref.eq),0.80308,R,ugm-3,0.95615,R,ugm-3,2.18753,R,ugm-3
04-01-2023,04:00,-2.899,R,ugm-3 (Ref.eq),0.80308,R,ugm-3,1.51576,R,ugm-3,2.74713,R,ugm-3
04-01-2023,05:00,2.899,R,ugm-3 (Ref.eq),1.27155,R,ugm-3,1.15356,R,ugm-3,3.10324,R,ugm-3
04-01-2023,06:00,2.899,R,ugm-3 (Ref.eq),3.17887,R,ugm-3,5.80909,R,ugm-3,10.68329,R,ugm-3
04-01-2023,07:00,1.932,R,ugm-3 (Ref.eq),8.46584,R,ugm-3,12.71000,R,ugm-3,25.69077,R,ugm-3
04-01-2023,08:00,17.392,R,ugm-3 (Ref.eq),12.88279,R,ugm-3,22.26760,R,ugm-3,42.02094,R,ugm-3
04-01-2023,09:00,14.493,R,ugm-3 (Ref.eq),15.45935,R,ugm-3,20.04661,R,ugm-3,43.75062,R,ugm-3
04-01-2023,10:00,15.459,R,ugm-3 (Ref.eq),10.23931,R,ugm-3,15.38323,R,ugm-3,31.08329,R,ugm-3
04-01-2023,11:00,17.392,R,ugm-3 (Ref.eq),12.07971,R,ugm-3,15.41020,R,ugm-3,33.93216,R,ugm-3
04-01-2023,12:00,9.662,R,ugm-3 (Ref.eq),18.63822,R,ugm-3,18.37740,R,ugm-3,46.95560,R,ugm-3
04-01-2023,13:00,13.527,R,ugm-3 (Ref.eq),12.28048,R,ugm-3,18.86695,R,ugm-3,37.69675,R,ugm-3
04-01-2023,14:00,16.425,R,ugm-3 (Ref.eq),15.09127,R,ugm-3,18.83044,R,ugm-3,41.97007,R,ugm-3
04-01-2023,15:00,12.561,R,ugm-3 (Ref.eq),16.73090,R,ugm-3,17.38471,R,ugm-3,43.03840,R,ugm-3
04-01-2023,16:00,18.358,R,ugm-3 (Ref.eq),19.37438,R,ugm-3,26.10050,R,ugm-3,55.80747,R,ugm-3
04-01-2023,17:00,16.425,R,ugm-3 (Ref.eq),25.46443,R,ugm-3,38.79049,R,ugm-3,77.83540,R,ugm-3
04-01-2023,18:00,16.425,R,ugm-3 (Ref.eq),31.88909,R,ugm-3,38.30007,R,ugm-3,87.19600,R,ugm-3
04-01-2023,19:00,12.561,R,ugm-3 (Ref.eq),20.67939,R,ugm-3,24.30301,R,ugm-3,56.01097,R,ugm-3
04-01-2023,20:00,17.392,R,ugm-3 (Ref.eq),21.95094,R,ugm-3,23.26904,R,ugm-3,56.92668,R,ugm-3
04-01-2023,21:00,19.324,R,ugm-3 (Ref.eq),10.90855,R,ugm-3,14.45883,R,ugm-3,31.18503,R,ugm-3
04-01-2023,22:00,14.493,R,ugm-3 (Ref.eq),14.05396,R,ugm-3,15.23194,R,ugm-3,36.78104,R,ugm-3
04-01-2023,23:00,9.662,R,ugm-3 (Ref.eq),7.89698,R,ugm-3,9.20717,R,ugm-3,21.31571,R,ugm-3
04-01-2023,24:00,9.662,R,ugm-3 (Ref.eq),4.21619,R,ugm-3,9.71282,R,ugm-3,16.17755,R,ugm-3
05-01-2023,01:00,15.459,R,ugm-3 (Ref.eq),3.70727,R,ugm-3,6.19637,R,ugm-3,11.88078,R,ugm-3
05-01-2023,02:00,11.594,R,ugm-3 (Ref.eq),2.00997,R,ugm-3,5.13280,R,ugm-3,8.21471,R,ugm-3
05-01-2023,03:00,17.392,R,ugm-3 (Ref.eq),2.37846,R,ugm-3,5.46733,R,ugm-3,9.11425,R,ugm-3
05-01-2023,04:00,17.392,R,ugm-3 (Ref.eq),1.50747,R,ugm-3,3.18767,R,ugm-3,5.49910,R,ugm-3
05-01-2023,05:00,15.459,R,ugm-3 (Ref.eq),1.84247,R,ugm-3,5.16899,R,ugm-3,7.99406,R,ugm-3
05-01-2023,06:00,17.392,R,ugm-3 (Ref.eq),7.03488,R,ugm-3,10.19139,R,ugm-3,20.97806,R,ugm-3
05-01-2023,07:00,24.155,R,ugm-3 (Ref.eq),13.03128,R,ugm-3,21.56776,R,ugm-3,41.54877,R,ugm-3
05-01-2023,08:00,21.256,R,ugm-3 (Ref.eq),16.21372,R,ugm-3,28.19545,R,ugm-3,53.05615,R,ugm-3
05-01-2023,09:00,25.121,R,ugm-3 (Ref.eq),23.14811,R,ugm-3,32.02349,R,ugm-3,67.51675,R,ugm-3
05-01-2023,10:00,10.628,R,ugm-3 (Ref.eq),19.56367,R,ugm-3,29.47457,R,ugm-3,59.47177,R,ugm-3
05-01-2023,11:00,10.628,R,ugm-3 (Ref.eq),11.72480,R,ugm-3,12.26728,R,ugm-3,30.24506,R,ugm-3
05-01-2023,12:00,19.324,R,ugm-3 (Ref.eq),17.31921,R,ugm-3,19.72837,R,ugm-3,46.28411,R,ugm-3
05-01-2023,13:00,24.155,R,ugm-3 (Ref.eq),12.99778,R,ugm-3,19.32783,R,ugm-3,39.25748,R,ugm-3
05-01-2023,14:00,13.527,R,ugm-3 (Ref.eq),11.38981,R,ugm-3,10.13322,R,ugm-3,27.59734,R,ugm-3
05-01-2023,15:00,12.561,R,ugm-3 (Ref.eq),11.85880,R,ugm-3,16.18615,R,ugm-3,34.36939,R,ugm-3
05-01-2023,16:00,11.594,R,ugm-3 (Ref.eq),12.05979,R,ugm-3,17.60916,R,ugm-3,36.10059,R,ugm-3
05-01-2023,17:00,10.628,R,ugm-3 (Ref.eq),10.85382,R,ugm-3,13.80645,R,ugm-3,30.44873,R,ugm-3
05-01-2023,18:00,10.628,R,ugm-3 (Ref.eq),10.15033,R,ugm-3,14.68144,R,ugm-3,30.24506,R,ugm-3
05-01-2023,19:00,6.763,R,ugm-3 (Ref.eq),8.64285,R,ugm-3,12.00295,R,ugm-3,25.25513,R,ugm-3
05-01-2023,20:00,3.865,R,ugm-3 (Ref.eq),7.97286,R,ugm-3,9.56785,R,ugm-3,21.79274,R,ugm-3
05-01-2023,21:00,5.797,R,ugm-3 (Ref.eq),7.20238,R,ugm-3,8.45795,R,ugm-3,19.50145,R,ugm-3
05-01-2023,22:00,4.831,R,ugm-3 (Ref.eq),8.20736,R,ugm-3,8.64820,R,ugm-3,21.23264,R,ugm-3
05-01-2023,23:00,2.899,R,ugm-3 (Ref.eq),3.98643,R,ugm-3,5.64953,R,ugm-3,11.76197,R,ugm-3
05-01-2023,24:00,2.899,R,ugm-3 (Ref.eq),2.11046,R,ugm-3,4.19797,R,ugm-3,7.43397,R,ugm-3
06-01-2023,01:00,0.966,R,ugm-3 (Ref.eq),4.82934,R,ugm-3,15.63013,R,ugm-3,23.03501,R,ugm-3
06-01-2023,02:00,0.966,R,ugm-3 (Ref.eq),2.50410,R,ugm-3,6.01317,R,ugm-3,9.85273,R,ugm-3
06-01-2023,03:00,6.763,R,ugm-3 (Ref.eq),1.67685,R,ugm-3,4.71649,R,ugm-3,7.28763,R,ugm-3
06-01-2023,04:00,5.797,R,ugm-3 (Ref.eq),2.01222,R,ugm-3,2.57146,R,ugm-3,5.65683,R,ugm-3
06-01-2023,05:00,4.831,R,ugm-3 (Ref.eq),1.24087,R,ugm-3,3.55034,R,ugm-3,5.45298,R,ugm-3
06-01-2023,06:00,10.628,R,ugm-3 (Ref.eq),6.64034,R,ugm-3,8.06283,R,ugm-3,18.24454,R,ugm-3
06-01-2023,07:00,9.662,R,ugm-3 (Ref.eq),8.92086,R,ugm-3,14.65664,R,ugm-3,28.33510,R,ugm-3
06-01-2023,08:00,8.696,R,ugm-3 (Ref.eq),20.42407,R,ugm-3,26.83164,R,ugm-3,58.14811,R,ugm-3
06-01-2023,09:00,13.527,R,ugm-3 (Ref.eq),27.86930,R,ugm-3,33.71129,R,ugm-3,76.44362,R,ugm-3
06-01-2023,10:00,14.493,R,ugm-3 (Ref.eq),15.49412,R,ugm-3,20.57998,R,ugm-3,44.33730,R,ugm-3
06-01-2023,11:00,8.696,R,ugm-3 (Ref.eq),14.48801,R,ugm-3,19.42165,R,ugm-3,41.63629,R,ugm-3
06-01-2023,12:00,9.662,R,ugm-3 (Ref.eq),12.91177,R,ugm-3,18.22019,R,ugm-3,38.01796,R,ugm-3
06-01-2023,13:00,9.662,R,ugm-3 (Ref.eq),13.75020,R,ugm-3,15.55864,R,ugm-3,36.64197,R,ugm-3
06-01-2023,14:00,10.628,R,ugm-3 (Ref.eq),15.56120,R,ugm-3,18.94826,R,ugm-3,42.80843,R,ugm-3
06-01-2023,15:00,16.425,R,ugm-3 (Ref.eq),18.31124,R,ugm-3,27.57412,R,ugm-3,55.65095,R,ugm-3
06-01-2023,16:00,13.527,R,ugm-3 (Ref.eq),19.82040,R,ugm-3,29.84671,R,ugm-3,60.23757,R,ugm-3
06-01-2023,17:00,14.493,R,ugm-3 (Ref.eq),25.85707,R,ugm-3,37.86687,R,ugm-3,77.51383,R,ugm-3
06-01-2023,18:00,11.594,R,ugm-3 (Ref.eq),18.34477,R,ugm-3,35.47283,R,ugm-3,63.60109,R,ugm-3
06-01-2023,19:00,8.696,R,ugm-3 (Ref.eq),14.85692,R,ugm-3,28.28405,R,ugm-3,51.06434,R,ugm-3
06-01-2023,20:00,5.797,R,ugm-3 (Ref.eq),11.20138,R,ugm-3,18.24367,R,ugm-3,35.41888,R,ugm-3
06-01-2023,21:00,7.730,R,ugm-3 (Ref.eq),7.81414,R,ugm-3,11.25735,R,ugm-3,23.23886,R,ugm-3
06-01-2023,22:00,6.763,R,ugm-3 (Ref.eq),5.41065,R,ugm-3,7.06047,R,ugm-3,15.35667,R,ugm-3
06-01-2023,23:00,4.831,R,ugm-3 (Ref.eq),6.33850,R,ugm-3,6.84388,R,ugm-3,16.56278,R,ugm-3
06-01-2023,24:00,7.730,R,ugm-3 (Ref.eq),6.77449,R,ugm-3,12.74953,R,ugm-3,23.13694,R,ugm-3
07-01-2023,01:00,7.730,R,ugm-3 (Ref.eq),4.11850,R,ugm-3,8.71519,R,ugm-3,15.03013,R,ugm-3
07-01-2023,02:00,6.763,R,ugm-3 (Ref.eq),4.07373,R,ugm-3,13.06843,R,ugm-3,19.31473,R,ugm-3
07-01-2023,03:00,4.831,R,ugm-3 (Ref.eq),2.82027,R,ugm-3,9.19255,R,ugm-3,13.51691,R,ugm-3
07-01-2023,04:00,5.797,R,ugm-3 (Ref.eq),3.82752,R,ugm-3,11.32066,R,ugm-3,17.18943,R,ugm-3
07-01-2023,05:00,5.797,R,ugm-3 (Ref.eq),3.25675,R,ugm-3,11.02266,R,ugm-3,16.01626,R,ugm-3
07-01-2023,06:00,5.797,R,ugm-3 (Ref.eq),3.22317,R,ugm-3,7.60565,R,ugm-3,12.54778,R,ugm-3
07-01-2023,07:00,4.831,R,ugm-3 (Ref.eq),2.85385,R,ugm-3,6.48870,R,ugm-3,10.86454,R,ugm-3
07-01-2023,08:00,3.865,R,ugm-3 (Ref.eq),3.32390,R,ugm-3,6.07401,R,ugm-3,11.17058,R,ugm-3
07-01-2023,09:00,4.831,R,ugm-3 (Ref.eq),4.59973,R,ugm-3,9.11646,R,ugm-3,16.16929,R,ugm-3
07-01-2023,10:00,2.899,R,ugm-3 (Ref.eq),9.16589,R,ugm-3,16.09109,R,ugm-3,30.14526,R,ugm-3
07-01-2023,11:00,1.932,R,ugm-3 (Ref.eq),11.18037,R,ugm-3,19.07212,R,ugm-3,36.21512,R,ugm-3
07-01-2023,12:00,1.932,R,ugm-3 (Ref.eq),11.31467,R,ugm-3,17.74404,R,ugm-3,35.09296,R,ugm-3
07-01-2023,13:00,1.932,R,ugm-3 (Ref.eq),10.20671,R,ugm-3,19.95297,R,ugm-3,35.60303,R,ugm-3
07-01-2023,14:00,6.763,R,ugm-3 (Ref.eq),16.68662,R,ugm-3,20.06566,R,ugm-3,45.65145,R,ugm-3
07-01-2023,15:00,5.797,R,ugm-3 (Ref.eq),22.22645,R,ugm-3,27.12858,R,ugm-3,61.20865,R,ugm-3
07-01-2023,16:00,4.831,R,ugm-3 (Ref.eq),16.08228,R,ugm-3,24.61382,R,ugm-3,49.27297,R,ugm-3
07-01-2023,17:00,10.628,R,ugm-3 (Ref.eq),11.58327,R,ugm-3,18.09731,R,ugm-3,35.85807,R,ugm-3
07-01-2023,18:00,6.763,R,ugm-3 (Ref.eq),9.13232,R,ugm-3,10.88883,R,ugm-3,24.89152,R,ugm-3
07-01-2023,19:00,5.797,R,ugm-3 (Ref.eq),9.23304,R,ugm-3,13.94784,R,ugm-3,28.10497,R,ugm-3
07-01-2023,20:00,10.628,R,ugm-3 (Ref.eq),6.91639,R,ugm-3,7.40057,R,ugm-3,18.00555,R,ugm-3
07-01-2023,21:00,14.493,R,ugm-3 (Ref.eq),5.53982,R,ugm-3,8.44012,R,ugm-3,16.93439,R,ugm-3
07-01-2023,22:00,12.561,R,ugm-3 (Ref.eq),6.41277,R,ugm-3,9.14191,R,ugm-3,18.97468,R,ugm-3
07-01-2023,23:00,13.527,R,ugm-3 (Ref.eq),6.51349,R,ugm-3,10.87474,R,ugm-3,20.86195,R,ugm-3
07-01-2023,24:00,16.425,R,ugm-3 (Ref.eq),4.39828,R,ugm-3,3.55951,R,ugm-3,10.30346,R,ugm-3
08-01-2023,01:00,23.189,R,ugm-3 (Ref.eq),4.25756,R,ugm-3,3.40996,R,ugm-3,9.93813,R,ugm-3
08-01-2023,02:00,17.392,R,ugm-3 (Ref.eq),3.76458,R,ugm-3,4.84654,R,ugm-3,10.61882,R,ugm-3
08-01-2023,03:00,8.696,R,ugm-3 (Ref.eq),3.22678,R,ugm-3,1.94436,R,ugm-3,6.89202,R,ugm-3
08-01-2023,04:00,8.696,R,ugm-3 (Ref.eq),1.41172,R,ugm-3,1.66430,R,ugm-3,3.82890,R,ugm-3
08-01-2023,05:00,7.730,R,ugm-3 (Ref.eq),1.37811,R,ugm-3,2.48162,R,ugm-3,4.59468,R,ugm-3
08-01-2023,06:00,6.763,R,ugm-3 (Ref.eq),1.84868,R,ugm-3,5.18057,R,ugm-3,8.01517,R,ugm-3
08-01-2023,07:00,5.797,R,ugm-3 (Ref.eq),1.64700,R,ugm-3,3.70298,R,ugm-3,6.22835,R,ugm-3
08-01-2023,08:00,6.763,R,ugm-3 (Ref.eq),2.99150,R,ugm-3,4.90878,R,ugm-3,9.49567,R,ugm-3
08-01-2023,09:00,4.831,R,ugm-3 (Ref.eq),3.42846,R,ugm-3,7.04664,R,ugm-3,12.30354,R,ugm-3
08-01-2023,10:00,10.628,R,ugm-3 (Ref.eq),6.62163,R,ugm-3,8.73622,R,ugm-3,18.88924,R,ugm-3
08-01-2023,11:00,12.561,R,ugm-3 (Ref.eq),10.05009,R,ugm-3,9.75873,R,ugm-3,25.16864,R,ugm-3
08-01-2023,12:00,8.696,R,ugm-3 (Ref.eq),8.30224,R,ugm-3,13.45975,R,ugm-3,26.18968,R,ugm-3
08-01-2023,13:00,6.763,R,ugm-3 (Ref.eq),9.20978,R,ugm-3,12.37454,R,ugm-3,26.49600,R,ugm-3
08-01-2023,14:00,3.865,R,ugm-3 (Ref.eq),9.78119,R,ugm-3,14.66361,R,ugm-3,29.66122,R,ugm-3
08-01-2023,15:00,5.797,R,ugm-3 (Ref.eq),13.31048,R,ugm-3,12.31522,R,ugm-3,32.72434,R,ugm-3
08-01-2023,16:00,5.797,R,ugm-3 (Ref.eq),17.24312,R,ugm-3,22.51980,R,ugm-3,48.95888,R,ugm-3
08-01-2023,17:00,3.865,R,ugm-3 (Ref.eq),14.58775,R,ugm-3,15.71723,R,ugm-3,38.08480,R,ugm-3
08-01-2023,18:00,4.831,R,ugm-3 (Ref.eq),16.13391,R,ugm-3,21.10638,R,ugm-3,45.84471,R,ugm-3
08-01-2023,19:00,4.831,R,ugm-3 (Ref.eq),12.67185,R,ugm-3,15.59179,R,ugm-3,35.02168,R,ugm-3
08-01-2023,20:00,7.730,R,ugm-3 (Ref.eq),14.95748,R,ugm-3,20.91919,R,ugm-3,43.85368,R,ugm-3
08-01-2023,21:00,12.561,R,ugm-3 (Ref.eq),16.16753,R,ugm-3,15.28597,R,ugm-3,40.07583,R,ugm-3
08-01-2023,22:00,11.594,R,ugm-3 (Ref.eq),11.32735,R,ugm-3,17.70437,R,ugm-3,35.07273,R,ugm-3
08-01-2023,23:00,10.628,R,ugm-3 (Ref.eq),11.29374,R,ugm-3,16.07119,R,ugm-3,33.38802,R,ugm-3
08-01-2023,24:00,8.696,R,ugm-3 (Ref.eq),14.62136,R,ugm-3,20.97511,R,ugm-3,43.39421,R,ugm-3
09-01-2023,01:00,17.392,R,ugm-3 (Ref.eq),10.09499,R,ugm-3,26.35249,R,ugm-3,41.83126,R,ugm-3
09-01-2023,02:00,17.392,R,ugm-3 (Ref.eq),9.37712,R,ugm-3,17.30197,R,ugm-3,31.68002,R,ugm-3
09-01-2023,03:00,11.594,R,ugm-3 (Ref.eq),9.25374,R,ugm-3,21.73219,R,ugm-3,35.92106,R,ugm-3
09-01-2023,04:00,8.696,R,ugm-3 (Ref.eq),4.44179,R,ugm-3,14.13904,R,ugm-3,20.94969,R,ugm-3
09-01-2023,05:00,7.730,R,ugm-3 (Ref.eq),2.92755,R,ugm-3,5.01517,R,ugm-3,9.50401,R,ugm-3
09-01-2023,06:00,6.763,R,ugm-3 (Ref.eq),7.70584,R,ugm-3,10.71824,R,ugm-3,22.53370,R,ugm-3
09-01-2023,07:00,8.696,R,ugm-3 (Ref.eq),15.31073,R,ugm-3,21.79565,R,ugm-3,45.27178,R,ugm-3
09-01-2023,08:00,12.561,R,ugm-3 (Ref.eq),19.78617,R,ugm-3,30.82451,R,ugm-3,61.16288,R,ugm-3
09-01-2023,09:00,9.662,R,ugm-3 (Ref.eq),32.27030,R,ugm-3,40.85872,R,ugm-3,90.33916,R,ugm-3
09-01-2023,10:00,12.561,R,ugm-3 (Ref.eq),34.08740,R,ugm-3,47.67874,R,ugm-3,99.94536,R,ugm-3
09-01-2023,11:00,7.730,R,ugm-3 (Ref.eq),27.39106,R,ugm-3,46.24515,R,ugm-3,88.24419,R,ugm-3
09-01-2023,12:00,5.797,R,ugm-3 (Ref.eq),21.93977,R,ugm-3,35.59567,R,ugm-3,69.23618,R,ugm-3
09-01-2023,13:00,14.493,R,ugm-3 (Ref.eq),24.02607,R,ugm-3,27.18485,R,ugm-3,64.02431,R,ugm-3
09-01-2023,14:00,25.121,R,ugm-3 (Ref.eq),18.60842,R,ugm-3,25.32352,R,ugm-3,53.85604,R,ugm-3
09-01-2023,15:00,22.223,R,ugm-3 (Ref.eq),22.47817,R,ugm-3,28.48523,R,ugm-3,62.95127,R,ugm-3
09-01-2023,16:00,28.986,R,ugm-3 (Ref.eq),28.66976,R,ugm-3,39.07264,R,ugm-3,83.03232,R,ugm-3
09-01-2023,17:00,24.155,R,ugm-3 (Ref.eq),33.07790,R,ugm-3,40.79565,R,ugm-3,91.51439,R,ugm-3
09-01-2023,18:00,25.121,R,ugm-3 (Ref.eq),33.38075,R,ugm-3,37.62315,R,ugm-3,88.80626,R,ugm-3
09-01-2023,19:00,25.121,R,ugm-3 (Ref.eq),31.90016,R,ugm-3,28.09001,R,ugm-3,77.00290,R,ugm-3
09-01-2023,20:00,24.155,R,ugm-3 (Ref.eq),18.91127,R,ugm-3,25.62561,R,ugm-3,54.62249,R,ugm-3
09-01-2023,21:00,16.425,R,ugm-3 (Ref.eq),13.89743,R,ugm-3,18.39313,R,ugm-3,39.70222,R,ugm-3
09-01-2023,22:00,23.189,R,ugm-3 (Ref.eq),12.08033,R,ugm-3,17.65362,R,ugm-3,36.17654,R,ugm-3
09-01-2023,23:00,27.054,R,ugm-3 (Ref.eq),11.37368,R,ugm-3,18.99262,R,ugm-3,36.43203,R,ugm-3
09-01-2023,24:00,19.324,R,ugm-3 (Ref.eq),10.80163,R,ugm-3,18.33685,R,ugm-3,34.89912,R,ugm-3
10-01-2023,01:00,16.425,R,ugm-3 (Ref.eq),3.77301,R,ugm-3,9.28453,R,ugm-3,15.06973,R,ugm-3
10-01-2023,02:00,17.392,R,ugm-3 (Ref.eq),8.21977,R,ugm-3,12.96733,R,ugm-3,25.57081,R,ugm-3
10-01-2023,03:00,18.358,R,ugm-3 (Ref.eq),1.54963,R,ugm-3,8.82395,R,ugm-3,11.20001,R,ugm-3
10-01-2023,04:00,21.256,R,ugm-3 (Ref.eq),1.34750,R,ugm-3,8.31560,R,ugm-3,10.38175,R,ugm-3
10-01-2023,05:00,19.324,R,ugm-3 (Ref.eq),1.95388,R,ugm-3,8.35753,R,ugm-3,11.35344,R,ugm-3
10-01-2023,06:00,17.392,R,ugm-3 (Ref.eq),7.64708,R,ugm-3,15.07284,R,ugm-3,26.79820,R,ugm-3
10-01-2023,07:00,14.493,R,ugm-3 (Ref.eq),9.12934,R,ugm-3,12.80009,R,ugm-3,26.79820,R,ugm-3
10-01-2023,08:00,11.594,R,ugm-3 (Ref.eq),12.26228,R,ugm-3,23.64564,R,ugm-3,42.44754,R,ugm-3
10-01-2023,09:00,10.628,R,ugm-3 (Ref.eq),15.86685,R,ugm-3,29.16529,R,ugm-3,53.49413,R,ugm-3
10-01-2023,10:00,8.696,R,ugm-3 (Ref.eq),9.23040,R,ugm-3,16.99216,R,ugm-3,31.14524,R,ugm-3
10-01-2023,11:00,6.763,R,ugm-3 (Ref.eq),8.62402,R,ugm-3,18.12649,R,ugm-3,31.34981,R,ugm-3
10-01-2023,12:00,6.763,R,ugm-3 (Ref.eq),13.77822,R,ugm-3,20.75867,R,ugm-3,41.88498,R,ugm-3
10-01-2023,13:00,4.831,R,ugm-3 (Ref.eq),7.98396,R,ugm-3,9.64671,R,ugm-3,21.88861,R,ugm-3
10-01-2023,14:00,1.932,R,ugm-3 (Ref.eq),8.85983,R,ugm-3,10.40053,R,ugm-3,23.98542,R,ugm-3
10-01-2023,15:00,6.763,R,ugm-3 (Ref.eq),9.09565,R,ugm-3,12.23804,R,ugm-3,26.18451,R,ugm-3
10-01-2023,16:00,11.594,R,ugm-3 (Ref.eq),9.87046,R,ugm-3,7.77695,R,ugm-3,22.91144,R,ugm-3
10-01-2023,17:00,8.696,R,ugm-3 (Ref.eq),7.81552,R,ugm-3,11.89950,R,ugm-3,23.88313,R,ugm-3
10-01-2023,18:00,3.865,R,ugm-3 (Ref.eq),9.19671,R,ugm-3,11.46938,R,ugm-3,25.57081,R,ugm-3
10-01-2023,19:00,5.797,R,ugm-3 (Ref.eq),8.18608,R,ugm-3,12.14958,R,ugm-3,24.70140,R,ugm-3
10-01-2023,20:00,8.696,R,ugm-3 (Ref.eq),7.41127,R,ugm-3,5.81980,R,ugm-3,17.18358,R,ugm-3
10-01-2023,21:00,3.865,R,ugm-3 (Ref.eq),9.39884,R,ugm-3,16.58047,R,ugm-3,30.99182,R,ugm-3
10-01-2023,22:00,8.696,R,ugm-3 (Ref.eq),11.58853,R,ugm-3,20.74080,R,ugm-3,38.50963,R,ugm-3
10-01-2023,23:00,7.730,R,ugm-3 (Ref.eq),7.24283,R,ugm-3,15.48812,R,ugm-3,26.59364,R,ugm-3
10-01-2023,24:00,4.831,R,ugm-3 (Ref.eq),4.14357,R,ugm-3,11.08590,R,ugm-3,17.43929,R,ugm-3
11-01-2023,01:00,3.865,R,ugm-3 (Ref.eq),3.59736,R,ugm-3,11.47802,R,ugm-3,16.99389,R,ugm-3
11-01-2023,02:00,3.865,R,ugm-3 (Ref.eq),2.24835,R,ugm-3,5.90263,R,ugm-3,9.35005,R,ugm-3
11-01-2023,03:00,4.831,R,ugm-3 (Ref.eq),1.75371,R,ugm-3,4.68186,R,ugm-3,7.37084,R,ugm-3
11-01-2023,04:00,10.628,R,ugm-3 (Ref.eq),1.48391,R,ugm-3,2.68979,R,ugm-3,4.96508,R,ugm-3
11-01-2023,05:00,9.662,R,ugm-3 (Ref.eq),1.88861,R,ugm-3,6.26654,R,ugm-3,9.16237,R,ugm-3
11-01-2023,06:00,18.358,R,ugm-3 (Ref.eq),4.65408,R,ugm-3,8.52689,R,ugm-3,15.66304,R,ugm-3
11-01-2023,07:00,17.392,R,ugm-3 (Ref.eq),11.33167,R,ugm-3,21.47550,R,ugm-3,38.85049,R,ugm-3
11-01-2023,08:00,18.358,R,ugm-3 (Ref.eq),17.43594,R,ugm-3,23.47914,R,ugm-3,50.21387,R,ugm-3
11-01-2023,09:00,20.290,R,ugm-3 (Ref.eq),31.09465,R,ugm-3,39.39029,R,ugm-3,87.06809,R,ugm-3
11-01-2023,10:00,14.493,R,ugm-3 (Ref.eq),21.61786,R,ugm-3,26.07575,R,ugm-3,59.22268,R,ugm-3
11-01-2023,11:00,17.392,R,ugm-3 (Ref.eq),14.06342,R,ugm-3,18.36180,R,ugm-3,39.92540,R,ugm-3
11-01-2023,12:00,18.358,R,ugm-3 (Ref.eq),11.29795,R,ugm-3,12.00654,R,ugm-3,29.32982,R,ugm-3
11-01-2023,13:00,11.594,R,ugm-3 (Ref.eq),10.45482,R,ugm-3,8.02712,R,ugm-3,24.05762,R,ugm-3
11-01-2023,14:00,,,,10.70214,R,ugm-3,8.70576,R,ugm-3,25.11547,R,ugm-3
11-01-2023,15:00,9.662,R,ugm-3 (Ref.eq),14.38942,R,ugm-3,21.20610,R,ugm-3,43.26958,R,ugm-3
11-01-2023,16:00,9.662,R,ugm-3 (Ref.eq),17.94181,R,ugm-3,14.41128,R,ugm-3,41.92167,R,ugm-3
11-01-2023,17:00,7.730,R,ugm-3 (Ref.eq),20.23513,R,ugm-3,23.12846,R,ugm-3,54.15522,R,ugm-3
11-01-2023,18:00,6.763,R,ugm-3 (Ref.eq),22.12374,R,ugm-3,26.83568,R,ugm-3,60.75827,R,ugm-3
11-01-2023,19:00,5.797,R,ugm-3 (Ref.eq),14.36694,R,ugm-3,18.61301,R,ugm-3,40.64201,R,ugm-3
11-01-2023,20:00,5.797,R,ugm-3 (Ref.eq),12.88303,R,ugm-3,17.25407,R,ugm-3,37.00778,R,ugm-3
11-01-2023,21:00,6.763,R,ugm-3 (Ref.eq),9.67914,R,ugm-3,14.33512,R,ugm-3,29.17626,R,ugm-3